Lapse_Rate
5.6 5.4 5.3 5.2 5.4 5.6 5.4 5.3 5.6 5.3 5.8 5.8 5.8 6.1 6.2 6.3 6.3 6.4 6.4 6.3 6.4 6.5 6.2 6.0 6.1 6.0 5.9 6.2 6.0 6.1 6.3 6.4 6.2 6.0 5.4 5.7 5.7 5.7 6.1 6.1 5.6 5.8 4.8 5.3
5.4 5.2 5.0 5.3 5.2 5.3 5.0 5.4 5.5 5.1 5.5 5.6 5.5 5.7 6.2 6.1 6.3 6.3 6.3 6.4 6.4 6.2 6.3 6.4 6.3 6.2 5.8 6.3 6.0 6.1 6.2 6.3 6.3 5.9 5.5 4.9 5.1 5.6 5.6 5.7 5.9 5.9 5.3 5.4
5.5 5.0 5.0 4.9 4.8 4.8 4.6 5.3 5.0 4.9 5.0 5.7 5.6 6.3 6.0 6.1 5.9 5.9 6.1 6.0 6.2 6.2 6.3 6.6 6.5 6.3 6.2 6.0 6.0 6.0 6.1 6.3 6.3 6.3 5.9 5.4 5.5 4.9 5.1 5.3 5.6 5.9 5.8 5.6
5.4 5.2 4.9 4.9 4.7 5.1 5.1 5.5 5.6 4.9 5.0 6.5 6.1 7.6 6.6 5.8 5.8 5.7 6.0 6.0 5.8 5.8 5.8 6.1 6.2 6.3 6.2 6.1 6.1 6.4 6.4 6.5 6.3 6.0 6.2 5.8 6.0 5.7 5.1 5.3 5.0 5.4 5.4 5.7
5.3 5.1 5.1 5.0 4.9 4.9 5.1 5.8 5.8 5.3 5.2 5.7 6.2 6.6 6.8 6.3 5.5 5.5 5.8 5.9 6.1 6.0 5.8 5.7 5.8 5.8 5.8 5.9 6.0 5.8 6.1 6.0 6.2 6.2 6.1 6.7 6.8 6.4 5.6 5.3 4.9 5.2 5.7 5.7
5.5 5.1 5.2 4.9 4.9 4.8 5.1 5.8 5.6 5.3 5.2 6.0 6.2 6.2 7.2 6.3 5.8 5.7 5.8 5.9 6.0 6.0 6.0 6.0 5.9 5.9 5.9 5.8 5.8 5.9 5.8 5.9 5.7 5.9 6.1 6.2 6.0 6.0 6.1 5.6 5.6 5.7 6.1 5.9
5.5 5.0 5.0 5.0 4.9 4.8 4.8 5.3 6.1 6.2 6.0 6.7 5.5 5.7 6.7 6.2 6.1 5.8 5.8 5.9 5.9 6.0 6.0 6.1 6.0 6.1 6.1 6.0 5.9 5.9 5.8 5.8 5.7 5.8 5.7 6.0 6.1 5.9 6.0 5.9 6.0 5.9 5.9 5.9
5.3 4.8 5.0 4.9 4.7 4.7 4.6 4.7 5.3 6.1 6.5 6.7 5.6 6.2 6.0 6.0 5.9 5.9 6.0 6.1 6.0 5.8 5.5 5.5 5.7 5.8 5.8 6.0 6.1 6.0 6.0 6.1 5.9 5.8 5.8 5.9 5.5 5.5 5.9 5.8 6.2 6.2 6.2 6.0
5.3 5.2 5.0 4.8 4.7 4.8 4.7 4.1 5.1 4.6 4.6 4.7 6.2 6.0 6.0 5.8 5.8 5.8 5.9 5.9 5.7 5.5 5.3 5.1 5.1 5.2 5.4 5.6 5.6 5.8 5.9 6.0 6.1 6.0 5.9 5.9 5.9 5.7 5.6 5.8 6.0 6.1 6.2 6.1
5.4 5.0 5.1 4.9 4.8 4.7 4.6 4.7 4.9 5.1 5.7 6.1 6.6 6.0 6.4 5.9 5.7 5.8 5.8 5.5 5.4 5.4 5.3 5.1 4.7 4.6 4.9 5.3 5.6 5.7 5.8 6.0 6.1 6.1 6.1 6.0 5.9 5.8 5.8 5.7 5.7 5.8 6.1 6.2
5.5 5.1 5.2 4.9 4.9 4.7 4.5 4.3 4.5 4.6 4.9 5.7 5.9 6.9 5.9 5.6 5.6 5.5 5.4 5.3 5.2 5.1 5.0 4.7 4.3 4.2 4.4 4.8 5.2 5.3 5.4 5.5 5.7 6.0 6.0 6.0 6.0 5.9 5.8 5.8 5.9 6.0 6.1 6.0
5.4 5.2 5.0 5.0 5.0 5.0 4.9 4.7 4.7 4.8 5.1 4.9 4.5 5.5 6.0 5.7 5.6 5.5 5.4 5.2 5.2 5.1 4.9 4.6 3.9 3.8 4.3 4.4 4.8 5.0 5.2 5.5 5.7 5.8 5.9 6.1 6.1 5.9 5.8 5.6 5.6 5.7 5.8 6.0
5.4 5.2 5.0 5.4 5.2 5.1 5.0 4.8 4.7 4.8 4.4 4.6 5.3 6.7 6.2 5.8 5.6 5.6 5.8 5.8 5.6 5.4 5.1 4.9 4.6 4.3 4.2 4.4 4.5 4.7 4.9 5.2 5.5 5.6 5.6 5.6 5.7 6.0 6.1 6.1 5.9 5.7 5.7 5.9
5.4 5.4 5.2 5.5 5.3 5.1 5.1 5.1 4.7 4.3 4.3 5.2 5.2 6.5 6.3 5.9 5.7 6.0 6.1 5.9 5.8 5.7 5.5 5.2 5.0 4.7 4.2 4.2 4.4 4.5 4.6 4.9 5.1 5.3 5.4 5.6 5.7 5.7 5.8 6.0 5.9 5.7 5.9 6.0
5.2 5.4 5.6 5.5 5.3 5.3 5.7 5.5 5.2 4.8 5.2 5.0 6.2 6.4 6.6 6.3 6.8 6.6 6.5 6.3 6.1 6.0 5.8 5.4 5.1 4.9 4.4 4.1 4.1 4.3 4.6 4.8 5.0 5.2 5.2 5.3 5.6 5.7 5.8 5.6 5.7 5.7 5.7 5.9
5.2 5.0 5.3 5.9 5.7 5.7 5.9 5.9 5.7 5.4 5.1 5.9 6.0 6.8 6.8 6.8 6.8 6.7 6.7 6.7 6.3 5.9 5.7 5.4 5.1 5.2 4.9 4.1 3.9 4.0 4.4 4.5 4.7 4.9 4.9 5.0 5.2 5.3 4.7 5.0 4.8 5.1 5.9 5.6
5.0 4.8 4.9 5.4 5.4 5.4 6.4 6.7 6.4 6.0 5.9 5.8 6.2 6.5 7.0 6.9 6.9 6.9 7.0 7.0 6.7 6.4 6.0 5.6 5.4 5.2 4.9 4.4 4.1 4.0 4.1 4.2 4.5 4.8 4.9 5.1 5.4 5.2 5.1 5.2 5.1 5.2 5.8 6.4
5.0 4.7 4.4 5.1 5.5 5.7 6.9 6.8 6.6 6.3 6.2 6.3 6.4 6.5 7.0 7.1 7.1 7.2 7.3 7.2 7.0 6.7 6.4 6.0 5.6 5.4 5.5 5.0 4.9 4.7 4.5 4.6 4.6 4.9 4.8 4.9 5.6 5.2 4.8 5.0 4.9 5.6 6.2 6.3
5.2 4.8 4.4 4.6 4.9 6.6 6.9 7.0 6.6 6.4 6.7 6.6 6.6 6.6 7.2 7.4 7.4 7.4 7.5 7.4 7.2 6.9 6.7 6.4 6.2 5.9 6.1 6.0 5.6 5.8 5.8 5.8 5.5 5.2 5.2 5.0 5.4 5.5 5.4 5.5 5.7 6.2 6.9 6.8
5.5 4.7 4.5 4.1 4.2 5.6 6.9 6.9 6.7 6.4 6.7 6.6 6.6 6.7 6.8 7.1 7.4 7.7 7.7 7.7 7.5 7.2 6.9 6.7 6.6 6.6 6.5 6.5 6.3 6.3 6.5 6.3 6.0 5.6 5.6 5.6 5.5 5.7 5.6 5.8 6.3 6.5 6.9 6.9
5.7 5.0 4.8 4.3 4.4 6.6 7.2 6.9 6.7 6.4 6.8 6.7 6.6 6.6 6.7 6.6 6.7 6.9 7.2 7.6 7.5 7.2 7.0 6.9 6.9 6.9 6.7 6.5 6.7 7.0 7.2 7.1 6.6 6.4 6.2 6.1 6.1 6.3 6.6 6.9 7.3 7.5 7.6 7.3
6.0 5.9 5.8 5.0 4.5 6.0 7.1 6.9 7.0 6.9 6.7 6.7 6.6 6.4 6.5 6.6 6.6 6.5 6.5 6.8 7.1 7.1 7.0 7.1 6.9 6.7 6.7 6.5 6.7 6.9 7.1 7.2 7.0 6.8 6.6 6.8 6.9 7.0 7.2 7.2 7.2 7.2 7.1 7.0
5.5 5.9 6.3 6.3 7.0 7.1 7.0 6.7 6.6 6.7 6.7 6.5 6.7 6.6 6.4 6.5 6.5 6.4 6.4 6.4 6.5 6.7 6.7 6.7 6.7 6.7 6.9 6.9 6.8 6.9 7.0 7.2 7.2 7.1 7.0 7.1 7.2 7.2 7.2 7.2 7.2 7.3 7.3 7.2
5.9 5.9 5.5 6.1 7.1 6.7 6.7 6.6 6.7 6.7 6.6 6.6 6.5 6.5 6.5 6.4 6.5 6.5 6.4 6.3 6.4 6.5 6.6 6.7 6.8 6.9 7.0 7.0 7.0 7.1 7.2 7.3 7.2 7.2 7.1 7.1 7.1 7.2 7.3 7.4 7.5 7.5 7.4 7.4
5.7 5.9 6.0 6.4 7.4 6.6 6.6 6.6 6.5 6.4 6.6 6.6 6.3 6.4 6.5 6.5 6.5 6.5 6.5 6.4 6.4 6.5 6.5 6.6 6.8 6.9 6.9 7.0 7.1 7.2 7.3 7.3 7.2 7.2 7.2 7.3 7.3 7.4 7.4 7.4 7.5 7.5 7.5 7.4
5.9 6.6 6.5 6.9 7.2 6.6 6.5 6.2 6.3 6.0 6.2 6.3 6.2 6.3 6.3 6.6 6.7 6.7 6.8 6.7 6.6 6.6 6.6 6.6 6.7 6.9 6.9 6.9 7.1 7.2 7.3 7.4 7.4 7.4 7.3 7.4 7.4 7.4 7.3 7.3 7.3 7.3 7.3 7.3
Wind_Speed
7 9 10 13 9 6 6 7 8 3 7 4 5 5 7 7 9 9 10 11 12 12 9 10 13 13 14 14 14 14 11 11 9 4 2 2 3 6 7 12 15 13 11 14
3 10 9 4 6 4 6 8 8 1 5 6 1 2 4 7 9 10 10 11 12 12 12 13 14 14 13 14 14 14 13 11 8 6 4 4 3 3 4 9 14 17 16 14
10 6 6 4 7 8 1 8 10 7 10 6 6 8 6 3 5 8 10 10 11 13 14 15 15 15 15 14 13 13 13 12 10 9 5 6 5 2 4 5 7 12 17 17
5 3 6 5 5 9 3 9 7 6 5 4 3 3 8 7 3 7 10 10 10 12 13 12 13 14 13 13 13 12 13 12 10 11 8 8 6 5 5 5 6 7 18 19
3 6 9 8 7 8 4 9 4 4 4 6 5 5 7 7 6 6 10 10 11 11 11 13 13 13 12 12 13 12 12 12 12 12 10 8 8 6 7 5 10 9 10 16
4 1 3 5 8 5 13 5 4 3 2 3 2 4 4 3 3 5 8 9 10 11 11 12 13 13 12 13 13 13 12 12 11 11 12 11 10 9 7 7 7 6 6 7
2 2 2 6 8 2 12 6 1 2 2 2 2 5 5 4 2 5 7 7 8 9 11 12 13 14 14 14 13 13 14 13 12 12 11 11 11 10 9 8 7 6 5 5
4 1 5 8 4 5 7 5 3 4 4 6 4 4 3 3 2 3 4 6 7 9 10 11 12 12 13 14 14 13 13 13 13 12 11 10 11 7 7 7 6 6 5 6
3 2 0 2 3 4 3 5 2 2 2 3 1 3 4 2 6 6 5 6 7 9 10 11 11 11 12 12 12 12 13 12 11 12 11 11 10 10 9 10 7 6 9 4
2 4 1 1 2 2 3 1 1 0 5 5 0 4 3 4 2 4 4 5 7 8 10 10 10 10 10 12 11 11 11 11 12 11 10 10 11 10 10 10 9 8 7 5
2 1 1 2 2 3 1 1 1 2 1 3 5 2 3 3 4 4 4 4 7 8 8 9 10 10 9 9 10 11 11 12 11 11 10 9 9 10 9 9 8 7 6 6
3 2 4 1 1 2 3 1 1 2 3 2 2 5 2 1 3 5 6 4 5 6 8 8 9 10 10 10 10 10 10 10 11 11 10 9 9 9 8 8 9 9 8 9
2 1 3 2 1 2 5 5 5 1 0 6 2 2 1 3 5 6 7 5 4 4 6 7 8 9 10 10 10 10 9 10 10 10 9 9 9 9 9 10 10 10 11 11
2 1 4 4 2 2 4 6 8 7 3 2 10 12 11 5 7 6 4 4 4 3 3 4 5 6 7 8 10 10 10 10 10 10 9 9 9 9 9 10 11 12 12 12
2 3 1 8 11 10 10 9 9 13 12 6 2 5 15 10 8 8 4 2 3 4 3 3 3 3 5 7 8 8 9 10 8 9 10 10 9 9 9 10 11 12 13 13
2 2 3 5 2 3 7 12 12 12 13 15 15 21 16 5 2 1 4 5 6 4 3 3 3 2 3 4 7 9 5 8 8 9 10 10 9 9 9 9 10 12 12 13
4 2 1 4 1 5 6 7 15 6 10 7 9 9 3 2 3 4 6 8 6 5 2 3 1 1 2 3 5 7 7 7 7 7 6 6 9 9 9 7 8 12 10 11
4 2 1 4 3 3 1 2 5 10 7 17 9 12 6 4 4 5 7 9 8 6 4 3 1 0 3 2 1 3 6 6 6 7 7 9 8 7 7 7 9 9 9 11
2 3 1 3 3 8 3 4 6 7 5 19 19 16 11 5 5 13 12 12 9 7 6 4 3 2 3 3 4 4 5 5 6 8 9 9 7 6 8 8 8 8 8 11
2 3 2 1 3 4 2 5 3 2 4 7 15 12 11 7 4 4 5 10 9 7 7 7 6 4 3 3 3 4 4 5 7 7 7 7 6 7 8 8 6 7 9 8
4 4 7 6 5 9 3 9 7 1 1 3 8 9 13 10 5 4 4 5 6 6 8 8 7 4 4 4 3 2 1 4 3 4 5 4 5 4 6 5 5 6 7 6
9 9 5 5 5 8 11 8 7 1 1 2 4 7 12 11 5 4 6 6 8 9 9 8 7 6 5 5 3 3 3 2 1 3 3 3 3 2 2 3 4 5 5 6
5 5 6 10 6 2 16 3 7 2 2 3 3 5 9 8 9 9 8 9 9 10 8 7 6 5 4 4 3 4 4 3 2 2 2 2 2 2 2 3 4 4 3 3
5 3 3 1 6 16 13 14 16 8 8 3 4 4 8 10 10 10 9 9 9 8 8 7 7 7 6 6 6 4 5 5 5 5 2 1 1 2 2 2 2 3 2 2
2 9 6 6 12 9 15 15 17 15 14 10 8 9 10 9 10 11 9 9 9 8 7 9 10 9 9 8 7 6 6 6 7 6 5 5 3 3 3 2 2 3 3 2
7 8 7 8 7 5 5 5 8 14 15 15 13 12 11 10 11 9 9 10 10 10 8 9 10 9 8 9 8 7 7 9 9 8 5 5 4 4 3 4 4 6 6 6
Wind_Direction
25 56 28 18 13 4 336 324 338 18 351 326 39 55 48 47 39 40 30 30 27 31 31 16 8 7 2 21 8 4 360 359 0 355 359 272 213 226 193 185 183 190 202 201
126 45 9 352 8 349 357 352 352 286 3 298 245 102 80 51 55 41 32 28 20 13 15 14 10 8 4 13 358 352 355 351 356 355 336 294 209 199 205 204 190 199 192 183
63 21 330 349 17 352 56 12 341 312 323 260 271 231 202 139 66 55 44 34 24 14 5 5 4 6 2 1 345 344 346 341 340 345 318 309 240 199 199 202 201 196 201 202
59 0 355 359 25 352 350 354 318 305 285 320 219 343 187 161 134 50 34 27 24 16 4 2 1 359 357 353 346 344 342 339 338 340 336 335 309 250 199 176 202 203 200 206
36 8 360 15 358 333 353 330 309 308 284 311 193 264 98 169 206 28 21 20 17 16 6 359 4 357 354 352 348 343 342 338 336 339 338 335 320 316 315 216 200 199 212 213
78 330 19 338 318 302 313 298 242 271 297 238 84 268 144 166 11 353 11 16 16 10 8 7 1 358 355 353 352 347 342 339 338 335 332 324 321 318 325 314 214 206 205 208
5 14 44 359 315 191 359 348 321 217 220 347 129 260 337 120 77 3 348 358 1 359 2 360 3 356 353 354 353 346 343 339 339 330 321 317 310 309 305 306 322 231 205 207
10 212 21 4 22 331 8 5 24 308 338 332 146 248 83 107 151 331 318 329 342 355 357 356 355 359 355 351 352 347 344 339 335 330 322 312 305 297 292 293 309 310 238 211
334 233 155 49 332 326 352 38 350 287 186 252 243 160 146 195 255 270 316 318 352 356 355 352 350 355 351 351 354 346 341 337 335 330 323 319 311 305 299 296 291 292 304 196
137 285 336 24 270 230 342 37 230 181 339 311 313 282 5 199 248 306 295 332 350 354 352 350 352 351 356 350 351 346 346 340 335 333 330 324 319 309 303 296 285 270 276 266
120 280 51 286 22 348 171 86 25 300 316 317 317 63 122 167 1 321 302 330 343 346 348 350 351 350 354 352 357 352 349 345 342 338 332 333 331 328 324 326 325 301 257 264
115 308 287 293 206 307 287 272 235 305 113 252 291 282 114 125 318 300 293 301 338 342 346 348 351 349 347 358 360 356 353 348 343 340 338 346 350 354 1 6 14 29 48 47
115 176 294 216 211 203 256 223 222 121 244 231 259 295 157 239 274 280 278 287 314 335 340 340 351 356 352 354 354 357 359 354 345 346 351 3 10 13 19 27 35 43 55 53
127 278 243 277 344 28 229 232 222 196 216 232 236 287 288 250 250 248 267 253 266 278 284 317 335 345 350 350 351 355 358 1 354 353 2 11 16 22 26 35 43 49 52 60
254 265 278 276 278 276 258 255 216 216 221 221 115 260 277 285 267 251 239 230 244 272 255 279 305 332 344 347 351 350 358 360 1 10 13 17 23 29 35 44 53 55 55 54
170 300 356 280 325 274 271 259 235 237 250 260 264 280 287 282 348 292 240 219 247 256 223 265 274 298 0 349 350 348 359 6 8 23 16 24 26 30 32 46 63 63 64 63
180 226 346 272 324 303 273 232 201 196 212 201 199 226 272 276 266 240 230 217 228 252 255 190 230 244 13 359 341 2 4 9 10 27 21 40 35 35 33 34 53 64 64 65
170 149 235 288 307 261 185 139 201 215 231 218 240 239 240 269 294 267 236 227 221 219 210 206 205 146 74 23 348 360 18 19 11 28 36 38 44 51 41 41 56 66 64 65
264 179 206 291 290 297 170 197 192 191 284 215 225 239 232 234 289 270 225 220 218 199 184 167 154 129 95 51 15 26 32 37 27 21 30 37 33 40 60 54 58 65 75 63
173 266 209 149 273 263 61 152 166 176 278 199 208 224 205 163 239 267 161 199 199 178 161 162 157 145 119 87 39 34 35 41 32 16 23 26 31 50 58 60 54 61 67 79
177 194 212 202 261 281 183 145 143 281 336 165 211 198 180 191 215 104 120 166 187 170 154 149 157 169 124 114 84 78 54 69 24 8 28 25 46 52 65 68 65 80 81 89
179 162 183 176 221 273 137 130 189 23 145 178 191 206 203 202 145 155 174 160 165 165 160 172 169 175 165 141 156 164 187 132 29 35 46 23 6 38 101 114 90 84 98 90
228 205 181 200 215 119 195 254 235 356 291 210 204 201 212 211 207 192 190 184 183 182 176 172 179 163 162 162 176 188 164 154 158 65 40 48 41 45 31 85 90 88 75 93
228 159 233 76 245 234 226 239 250 257 226 245 239 181 197 214 212 210 194 191 192 188 179 166 167 182 194 186 186 197 148 155 176 189 198 154 46 86 62 79 86 102 110 111
137 148 184 254 273 271 264 241 246 240 228 231 231 226 216 210 217 215 205 197 195 191 179 177 188 197 199 183 189 173 162 168 186 191 195 198 182 176 132 82 101 103 58 52
186 183 191 228 195 187 254 211 238 224 228 228 223 227 225 209 215 195 214 201 195 193 181 190 197 195 191 183 189 178 171 179 187 191 194 195 191 182 172 151 123 96 105 101